Main page
METAR-TAF:

METAR-TAF

Airports :

Oil platform

Troll A, Norway

latitude: 60-38-42N, longitude: 3-43-29E, elevation: 20 m

Current weather observation

The report was made 15 minutes ago, at 17:50 UTC
Wind 27 kt from the South/Southwest
Temperature 12°C
Humidity 94%
Pressure 1008 hPa
Visibility 10 km or more
light rain showers

METAR: ENQA 211750Z AUTO 20027KT 9999NDV -SHRA OVC012/// 12/11 Q1008 W11/S5

Time: 20:05 (18:05 UTC)


TAF: missing

Weather observations and forecasts of more than 4000 airports (METAR and TAF reports).

The available stations are represented by yellow and red dots on the map.

Hover mouse over dot to see the name of the station.

Then click to see weather observations and forecasts.

To change the map : click on the green buttons with a black cross to zoom in, on the green button with a dash to zoom out, or on the green arrows for adjacent maps.


METAR-TAF: